Location: Newark
(7.1028°S, 35.3258°W)
Time: 18:22:39
(UTC+00:00)

Vanguard 3 - Pass Details

Date: 22 February 2020
Orbit: 508 x 3263 km, 33.4° (Epoch: 02 April)

Event Time Altitude Azimuth Distance (km) Brightness Sun altitude
Rises 02:50:21 0° 233° (SW) 6,123 11.7 -72.1°
Enters shadow 02:54:46 - 222° (SW) 5,091 11.3 -71.8°
Reaches altitude 10° 02:57:58 10° 210° (SSW) 4,392 - -71.6°
Maximum altitude 03:02:59 14° 184° (S) 3,559 - -71.1°
Drops below altitude 10° 03:07:02 10° 156° (SSE) 3,374 - -70.7°
Sets 03:11:20 0° 129° (SE) 3,825 - -70.3°
